SCP
0 0 0 0 0 0 0 0 0 0 0 0 0 0 0 0 0 0 0 0 0 0 0 0 0 0 0 0 0 0 0 0 0 0 0 0 0 0
0 0 0 0 0 0 0 0 0 0 0 0 0 0 0 0 0 0 0 0 0 0 0 0 0 0 0 0 0 0 0 0 0 0 0 0 0 0
0 0 0 0 0 0 0 0 0 0 0 0 0 0 0 0 0 0 0 0 0 0 0 0 0 0 0 0 0 0 0 0 0 0 0 0 0 0
0 0 0 0 0 0 0 0 0 0 0 0 0 0 0 0 0 0 0 0 0 0 0 0 0 0 0 0 0 0 0 0 0 0 0 0 0 0
0 0 0 0 0 0 0 0 0 0 0 0 0 0 0 0 0 0 0 0 0 0 0 0 0 -0 -0 0 0 0 0 0 0 0 0 0 0 0
0 0 0 0 0 0 0 0 0 0 0 0 0 0 0 0 0 0 0 0 0 0 0 0 -0 -0 -0 0 0 0 0 0 0 0 0 0 0 0
0 0 0 0 0 0 0 0 0 0 0 0 0 0 0 0 0 0 0 0 0 0 0 0 0 -0 -0 -0 0 0 0 0 0 0 0 0 0 0
0 0 0 0 0 0 0 0 0 0 0 0 0 0 0 0 0 0 0 0 0 0 0 0 0 0 0 -0 0 0 0 0 0 0 0 0 0 0
0 0 0 0 0 0 0 0 0 0 0 0 0 0 0 0 0 0 0 0 0 0 0 0 0 0 0 0 0 0 0 0 0 0 0 0 0 0
0 0 0 0 0 0 0 0 0 0 0 0 0 0 0 0 0 0 0 0 0 0 0 0 0 0 0 0 0 0 0 0 0 0 0 0 0 0
0 0 0 0 0 0 0 0 0 0 0 0 0 0 0 0 0 0 0 0 0 0 0 0 0 0 0 0 0 0 0 0 0 0 0 0 0 0
0 0 0 0 0 0 0 0 0 0 0 0 0 0 0 0 0 0 0 0 0 0 0 0 0 0 0 0 0 0 0 0 0 0 0 0 0 0
0 0 0 0 0 0 0 0 0 0 0 0 0 0 0 0 0 0 0 0 0 0 0 0 0 0 0 0 0 0 0 0 0 0 0 0 0 0
0 0 0 0 0 0 0 0 0 0 0 0 0 0 0 0 0 0 0 0 0 0 0 0 0 0 0 0 0 0 0 0 0 0 0 0 0 0
0 0 0 0 0 0 0 0 0 0 0 0 0 0 0 0 0 0 0 0 0 0 0 0 0 0 0 0 0 0 0 0 0 0 0 0 0 0
0 0 0 0 0 0 0 0 0 0 0 0 0 0 0 0 0 0 0 0 0 0 0 0 0 0 0 0 0 0 0 0 0 0 0 0 0 0
0 0 0 0 0 0 0 0 0 0 0 0 0 0 0 0 0 0 0 0 0 0 0 0 0 0 0 0 0 0 0 0 0 0 0 0 0 0
0 0 0 0 0 0 0 0 0 0 0 0 0 0 0 0 0 0 0 0 0 0 0 0 0 0 0 0 0 0 0 0 0 0 0 0 0 0
0 0 0 0 0 0 0 0 0 0 0 0 0 0 0 0 0 0 0 0 0 0 0 0 0 0 0 0 0 0 0 0 0 0 0 0 0 0
0 0 0 0 0 0 0 0 0 0 0 0 0 0 0 0 0 0 0 0 0 0 0 0 0 0 0 0 0 0 0 0 0 0 0 0 0 0
0 0 0 0 0 0 0 0 0 0 0 0 0 0 0 0 0 0 0 0 0 0 0 0 0 0 0 0 0 0 0 0 0 0 0 0 0 0
0 0 0 0 0 0 0 0 0 0 0 0 0 0 0 0 0 0 0 0 0 0 0 0 0 0 0 0 0 0 0 0 0 0 0 0 0 0
0 0 0 0 0 0 0 0 0 0 0 0 0 0 0 0 0 0 0 0 0 0 0 0 0 0 0 0 0 0 0 0 0 0 0 0 0 0
Wind_Speed
2 2 3 3 3 3 3 3 4 5 5 4 2 3 3 3 5 4 5 9 11 11 11 11 9 8 8 8 8 8 8 6 5 5 6 6 6 6
2 2 3 3 3 3 3 3 4 5 6 4 3 4 4 4 6 5 5 9 10 9 8 8 7 6 5 6 6 5 5 5 5 5 6 7 6 5
2 3 4 3 3 2 3 3 4 4 7 5 3 3 4 4 4 4 5 5 5 7 7 7 6 5 5 4 4 5 4 5 5 6 6 5 5 5
3 3 4 3 4 3 3 4 4 4 6 7 5 3 4 4 4 4 4 4 4 6 7 6 5 4 3 3 3 3 4 5 5 6 6 5 5 4
3 3 4 4 5 4 4 4 4 4 5 5 5 3 3 3 3 4 4 3 3 4 5 5 5 4 2 2 3 3 4 5 6 6 6 5 4 4
2 3 4 4 4 5 4 4 4 5 5 4 4 3 3 3 3 3 3 3 3 2 3 3 4 4 3 3 3 3 4 4 5 6 5 4 4 4
3 3 3 4 5 5 5 4 4 5 5 5 4 3 3 2 3 2 3 3 3 1 2 2 2 2 3 3 2 2 3 4 4 5 4 4 4 5
3 4 4 4 5 7 7 7 6 5 5 5 5 5 5 4 3 3 2 2 3 1 2 3 1 2 2 1 1 1 1 2 3 4 4 4 4 5
3 3 4 4 5 5 6 7 7 8 7 6 6 6 5 4 3 4 4 3 4 2 1 2 1 2 2 1 1 1 1 1 2 3 4 4 4 5
3 3 4 4 5 5 5 5 4 5 5 5 5 5 4 4 4 4 4 3 2 1 1 1 2 2 2 1 1 1 1 1 2 3 3 4 4 5
4 4 4 4 7 7 5 5 5 5 5 6 6 5 5 4 2 1 1 1 2 1 0 0 1 2 2 1 1 1 1 2 2 3 3 4 4 5
3 4 5 6 8 8 4 4 5 5 4 4 4 4 3 3 2 2 2 2 1 1 1 0 0 1 1 1 1 1 1 1 2 2 3 4 4 3
3 3 4 7 8 8 6 4 5 6 4 3 2 2 2 2 2 2 1 2 2 2 2 1 0 0 1 1 1 1 1 1 1 1 2 4 4 4
3 3 4 7 7 7 5 6 7 6 3 2 2 2 2 2 2 2 1 1 1 2 2 2 1 1 1 1 0 0 1 1 1 2 2 3 4 5
3 5 6 6 5 4 6 7 5 3 2 2 2 2 2 2 1 1 1 1 1 1 1 1 1 1 1 1 1 1 1 1 1 2 2 2 2 2
3 4 5 5 4 4 4 4 2 2 2 2 2 2 2 1 1 1 1 1 1 1 2 1 1 2 2 1 2 1 1 1 1 1 2 2 2 2
3 2 2 2 3 3 3 2 2 2 2 2 2 2 2 1 1 1 0 0 0 0 1 2 2 2 3 2 2 2 2 1 1 1 2 3 2 2
2 1 2 2 2 3 3 3 2 2 2 2 2 2 2 2 1 0 1 1 1 1 1 1 1 2 2 3 3 2 2 1 1 2 2 3 2 2
1 1 2 2 3 3 3 3 2 2 2 2 2 2 2 2 1 1 1 1 1 1 1 1 1 2 2 1 1 2 2 2 2 2 2 2 2 1
2 2 2 3 3 3 3 3 3 2 2 2 2 2 2 2 1 1 1 1 1 1 1 1 1 1 2 2 2 1 2 2 3 3 2 3 3 4
2 2 2 3 3 3 3 3 2 2 2 2 2 1 1 1 1 1 1 2 2 2 2 1 1 1 2 3 3 2 2 3 3 3 3 3 2 2
2 3 2 2 3 3 3 2 2 2 2 2 2 1 1 1 1 1 1 1 1 1 1 1 2 2 2 3 3 3 3 3 4 7 6 4 3 4
3 3 2 2 2 2 2 3 3 2 2 2 2 1 1 1 1 1 1 1 1 2 2 2 2 1 2 3 4 3 4 3 3 4 4 5 5 6
Wind_Direction
240 246 248 249 245 244 248 252 251 272 267 263 274 267 266 269 273 268 270 275 277 278 284 289 288 281 275 273 267 260 251 230 224 237 231 219 221 227
247 256 256 256 250 241 243 248 250 254 269 268 269 283 281 284 284 275 269 283 275 277 279 288 291 283 277 270 259 250 234 224 222 238 229 217 218 219
274 266 263 262 253 253 256 252 257 256 266 280 278 281 274 272 278 273 273 266 265 277 281 280 279 279 286 281 255 244 243 238 230 239 236 221 220 219
267 270 273 276 267 258 257 259 261 266 264 276 284 283 278 265 269 278 288 287 276 278 277 278 280 278 278 270 257 248 240 243 237 238 238 224 223 214
272 274 276 269 265 263 263 263 265 274 268 270 283 285 286 273 279 283 280 280 290 284 277 272 268 271 274 267 248 253 243 241 236 232 231 216 217 211
277 276 277 269 267 270 266 262 266 271 277 270 273 281 279 277 262 264 286 287 291 289 295 287 265 254 254 261 256 249 246 238 235 223 215 205 205 198
284 274 275 277 282 279 273 268 268 267 275 272 270 274 274 275 265 260 273 286 291 282 306 296 271 257 239 237 248 257 242 237 226 202 193 189 187 185
292 288 281 272 286 294 293 288 281 273 272 271 266 265 265 261 263 265 261 281 280 271 293 291 282 276 266 237 230 260 227 220 200 179 172 173 176 176
297 297 297 298 294 285 287 287 282 280 273 263 266 266 264 260 257 252 252 255 258 246 248 279 303 296 299 268 182 169 158 108 117 148 152 153 162 166
312 310 306 310 304 303 296 292 289 284 281 270 262 265 268 260 241 245 249 269 297 281 121 262 297 303 315 328 62 94 93 98 89 116 130 128 132 142
319 320 319 316 324 320 303 292 293 294 299 298 289 285 288 291 279 261 259 254 287 280 347 343 290 319 331 343 25 68 51 58 66 95 110 113 115 116
309 312 321 328 329 329 313 295 292 297 308 314 312 312 302 304 309 250 231 224 252 266 278 13 304 19 356 343 14 59 51 37 52 92 104 105 110 107
314 318 323 331 330 331 327 310 312 315 302 298 299 310 318 324 324 306 267 211 218 243 209 174 196 70 120 336 339 28 57 40 44 61 76 89 98 109
311 313 319 332 330 331 331 337 338 336 316 305 304 306 307 310 316 305 281 239 229 230 206 172 168 175 141 100 334 359 47 60 57 51 48 67 84 94
303 313 324 333 332 330 340 345 342 336 327 312 300 293 286 285 298 299 330 19 32 34 128 146 141 162 148 143 148 152 96 44 62 72 70 65 59 78
301 313 327 334 333 332 338 341 342 338 331 313 312 300 298 304 301 300 336 1 36 25 30 54 92 130 124 106 131 143 129 151 149 95 92 73 61 69
312 319 328 331 334 336 338 338 336 340 338 327 324 319 307 296 283 284 172 136 140 177 45 45 54 75 80 101 132 130 114 94 130 117 107 89 61 74
344 335 323 319 323 326 326 323 323 328 324 320 316 312 307 291 278 254 168 177 180 174 152 125 107 81 72 44 44 129 115 106 103 102 101 109 85 52
347 329 320 316 316 317 317 313 305 305 305 306 305 306 306 294 263 214 197 207 195 181 166 157 147 139 140 128 17 33 118 125 115 102 91 95 107 87
325 312 309 312 312 312 316 318 313 311 307 302 303 304 299 300 288 241 210 203 194 187 177 164 168 174 176 161 140 44 60 123 131 121 99 75 70 77
306 301 303 307 309 308 308 309 308 304 305 298 293 300 302 295 286 268 235 214 190 189 191 190 197 132 108 104 103 86 52 62 97 121 120 110 96 89
298 296 299 302 306 308 308 308 308 304 305 300 300 301 299 294 284 274 239 205 199 186 176 139 127 119 120 135 132 125 106 74 69 73 71 97 143 158
290 292 295 297 300 306 306 304 304 304 304 303 299 296 291 282 280 269 250 211 178 159 144 138 133 117 118 130 129 128 123 116 101 83 54 56 92 110